TIME,DELAY(SENSOR),PRES,OXYGEN,RAWTEMP,T(OPTODE),TCPHASE,FLUOR,BETA(BETA700),BETA(BETA412),BETA(BETA440),CDOM,C(CSC),ED(ED411.90),ED(ED443.80),ED(ED489.40),ED(ED554.70),LU(LU412.20),LU(LU443.80),LU(LU489.40),LU(LU555.00),COMP,TILTX,TILTY,CHECK
1364076923,5807,885.2999877929688000,163.6990966796875000,425.6254882812500000,9.8201551437377930,39.1085014343261700,86,1028,95,77,78,11412,2146962441,2147513426,2147285933,2147498413,2147084763,2146929398,2147700800,2147124160,125,-1,9,11994
1364080519,5806,1012.0700073242188000,207.2893981933593800,517.5996093750000000,6.9824280738830570,37.7665290832519500,87,1048,95,76,82,11412,2146962569,2147520155,2147293696,2147513398,2147086619,2146925650,2147719506,2147120219,891,-1,9,30459
1364084119,5803,1038.7600097656250000,223.7306976318359400,531.6409912109375000,6.5443949699401855,37.0747909545898440,88,1061,96,76,80,11409,2146957769,2147513362,2147295268,2147519561,2147088338,2146925339,2147721133,2147123117,3294,-1,9,32309
1364087719,5807,1035.9000244140625000,227.7474975585937500,533.8121948242188000,6.4765319824218750,36.8942108154296900,88,1069,94,77,80,11410,2146961307,2147517065,2147296173,2147517577,2147086829,2146922459,2147720978,2147121901,249,-1,8,11998
1364091319,5808,1036.3399658203125000,228.6714935302734400,536.1571044921875000,6.4032020568847660,36.8869705200195300,88,1070,95,78,81,11407,2146961508,2147516516,2147298605,2147519744,2147089664,2146922221,2147721472,2147118317,544,-1,8,58567
1364094919,5808,1026.0500488281250000,226.5765075683593800,535.7285156250000000,6.4166088104248050,36.9920997619628900,87,1076,96,76,79,11403,2146959332,2147516443,2147297444,2147519277,2147090212,2146923236,2147725513,2147122605,663,-1,9,1729
1364098519,5804,1030.7500000000000000,230.1417999267578000,536.3413085937500000,6.3974399566650390,36.8109397888183600,88,1076,95,77,80,11400,2146962349,2147513993,2147299053,2147518473,2147087881,2146921270,2147717540,2147123602,2607,-1,9,22326
1364102119,5807,1039.4100341796875000,226.0265045166015600,534.4827270507812000,6.4555702209472660,36.9999618530273440,89,1073,95,77,79,11403,2146962020,2147517824,2147296649,2147519497,2147087734,2146921051,2147723675,2147122102,348,-1,8,42644
1364105719,5806,1037.0000000000000000,227.0397033691406200,534.6649780273438000,6.4498691558837890,36.9482192993164060,89,1075,94,76,80,11403,2146959488,2147517257,2147297581,2147522057,2147088457,2146922386,2147724425,2147120411,141,-1,8,5205
1364109319,5806,1017.6400146484375000,222.1618957519531200,527.8535156250000000,6.6626911163330080,37.0934104919433600,86,1073,94,77,79,11391,2146963986,2147515657,2147295268,2147518939,2147087177,2146921133,2147719661,2147121709,658,-1,8,47159
1364112919,5806,1015.3099975585938000,222.2288055419922000,527.2542724609375000,6.6813960075378420,37.0788993835449200,87,1073,95,78,80,11387,2146961325,2147521846,2147296777,2147519049,2147086418,2146927076,2147720393,2147122276,373,-1,8,22287
1364116519,5805,1016.1599731445312000,220.9770965576172000,527.3270263671875000,6.6791291236877440,37.1504783630371100,87,1072,95,76,80,11389,2146964022,2147517275,2147299702,2147516562,2147086701,2146921618,2147724032,2147118866,210,-1,8,45171
1364120119,5807,1018.0200195312500000,222.0536041259765600,527.9102172851562000,6.6609210968017580,37.1012001037597660,88,1067,96,76,79,11384,2146964013,2147517924,2147297024,2147517942,2147086299,2146921353,2147720027,2147119158,737,0,8,65467
1364123719,5808,1016.8800048828125000,221.2873992919922000,527.8870849609375000,6.6616401672363280,37.1425590515136700,87,1066,96,76,80,11386,2146963072,2147520438,2147298139,2147515245,2147089801,2146921453,2147719625,2147122550,5,-1,8,55721
1364127319,5805,1015.0700073242188000,219.5359039306640600,528.2089843750000000,6.6515898704528810,37.2471199035644500,88,1070,94,77,80,11353,2146961993,2147516982,2147296082,2147518116,2147088192,2146921298,2147719926,2147120932,2771,-1,9,49249
1364130919,5805,1011.2700195312500000,223.4071044921875000,529.7730712890625000,6.6027488708496090,37.0588684082031250,88,1069,96,76,80,11348,2146961664,2147519296,2147296704,2147514486,2147089106,2146924050,2147721417,2147122550,448,-1,8,12246
1364134519,5805,1012.0399780273438000,224.3818054199218800,531.2634277343750000,6.5561938285827640,37.0319404602050800,87,1068,96,76,80,11351,2146964909,2147518683,2147296722,2147516022,2147089289,2146918656,2147720594,2147118820,395,-1,8,34859
1364138119,5807,1015.4699707031250000,223.9432983398437500,530.4860839843750000,6.5804772377014160,37.0419998168945300,89,1070,95,76,80,11351,2146964032,2147517586,2147295707,2147516315,2147089078,2146925193,2147718509,2147121993,179,-1,8,512
1364141719,5811,1017.1099853515625000,222.6611938476562500,530.4517211914062000,6.5815529823303220,37.1120605468750000,89,1070,96,78,78,11350,2146962742,2147518189,2147296201,2147515136,2147088530,2146927460,2147722724,2147120164,23,-1,8,28280
1364145319,5808,1014.7999877929688000,222.4342956542968800,529.9805908203125000,6.5962681770324710,37.1168518066406250,88,1079,95,76,79,11347,2146961892,2147518509,2147300681,2147516525,2147088374,2146920137,2147718052,2147122541,153,-1,8,37376
1364148919,5809,1017.1300048828125000,221.1302947998047000,530.0167236328125000,6.5951399803161620,37.1896591186523440,87,1079,94,77,80,11334,2146964480,2147519058,2147297069,2147516809,2147089654,2146922212,2147722468,2147122669,74,-1,8,28608
1364152519,5805,1016.8599853515625000,222.9884033203125000,529.1411132812500000,6.6224861145019530,37.0704498291015600,89,1082,95,77,80,11341,2146962340,2147518025,2147294793,2147514816,2147088192,2146920393,2147722267,2147119963,145,-1,9,33
1364156119,5809,1006.6900024414062000,226.9071044921875000,534.2849121093750000,6.4617562294006350,36.9481697082519500,90,1070,95,76,80,11348,2146960484,2147516955,2147296292,2147516644,2147086272,2146922624,2147721499,2147122770,68,-1,8,8835
1364159719,5804,1008.0399780273438000,227.8316040039062500,533.6879882812500000,6.4804148674011230,36.8877792358398440,89,1075,95,75,79,11347,2146964480,2147517668,2147297353,2147515885,2147090349,2146926308,2147724507,2147123254,3472,-1,9,16515
1364163319,5807,1012.4099731445312000,227.3917999267578000,533.9287719726562000,6.4728889465332030,36.9156608581543000,90,1076,94,76,80,11349,2146964836,2147522230,2147296365,2147515382,2147089526,2146920923,2147725961,2147120027,3219,-1,9,50569
1364166919,5806,1006.0999755859375000,228.2111968994140600,534.4052734375000000,6.4579868316650390,36.8795394897460940,87,1071,95,77,80,11350,2146963337,2147518107,2147296365,2147518921,2147092745,2146919780,2147721554,2147121462,378,-1,8,57832
1364170519,5807,1007.0499877929688000,228.6651000976562500,535.9680175781250000,6.4091172218322750,36.8832511901855500,89,1076,95,76,80,11344,2146962413,2147519360,2147294418,2147519616,2147089188,2146918573,2147723940,2147117842,522,-1,8,14493
1364174119,5806,1007.2299804687500000,228.7561950683593800,536.7852783203125000,6.3835492134094240,36.8933982849121100,89,1074,96,76,80,11339,2146962386,2147522413,2147295643,2147517056,2147089014,2146922002,2147719634,2147119936,764,-1,8,52962
1364177719,5806,1004.5499877929688000,229.2662048339843800,536.8156738281250000,6.3825988769531250,36.8659706115722660,88,1072,97,76,79,11344,2146963794,2147516379,2147298624,2147518518,2147090404,2146912393,2147719222,2147120758,2394,-1,9,64717
1364181319,5808,1007.5200195312500000,230.9490966796875000,537.8380126953125000,6.3506088256835940,36.7944717407226560,87,1070,96,77,79,11341,2146959954,2147520713,2147294902,2147520704,2147087314,2146920658,2147722386,2147121974,341,-1,8,25483
1364184919,5808,1013.0300292968750000,228.3719024658203000,535.1522827148438000,6.4346289634704590,36.8848915100097660,88,1069,95,77,79,11341,2146959259,2147520694,2147298377,2147514852,2147087908,2146922569,2147719616,2147122486,5,-1,8,46357
1364188519,5805,1012.4699707031250000,227.4082031250000000,534.9436035156250000,6.4411559104919430,36.9332389831543000,87,1072,94,77,79,11340,2146964717,2147515090,2147296566,2147517878,2147088347,2146921709,2147722459,2147121426,3393,-1,9,11612
1364192119,5806,1016.3599853515625000,228.6988983154297000,534.4323730468750000,6.4571418762207030,36.8541297912597660,88,1070,95,77,80,11341,2146963693,2147521389,2147295972,2147516342,2147085952,2146923977,2147721307,2147119597,3170,-1,9,31407
1364195719,5806,1010.8200073242188000,229.1562957763672000,535.0447998046875000,6.4379920959472660,36.8400993347168000,89,1072,93,76,80,11340,2146963922,2147516169,2147297718,2147513901,2147089563,2146923712,2147719661,2147120859,2903,-1,9,64664
1364199319,5807,1007.7899780273438000,229.5437927246093800,536.4157104492188000,6.3951129913330080,36.8442802429199200,89,1073,95,78,80,11337,2146962925,2147517211,2147295049,2147516690,2147087524,2146922002,2147721289,2147120128,15,-1,8,4186
1364202919,5806,1008.3900146484375000,230.8863067626953000,537.3765258789062000,6.3650531768798830,36.7894210815429700,88,1068,96,77,79,11338,2146963392,2147517705,2147296859,2147517312,2147085641,2146915730,2147723574,2147119186,267,-1,9,59797
1364206519,5807,1006.7999877929688000,228.9586944580078000,537.7230224609375000,6.3542079925537110,36.8988990783691400,87,1072,94,77,80,11337,2146963026,2147518976,2147296155,2147518665,2147085961,2146921362,2147725156,2147118144,3280,-1,9,57944
1364210119,5806,996.0599975585938000,233.4653930664062500,540.0540771484375000,6.2812399864196780,36.7015113830566400,89,1073,96,77,80,11335,2146961883,2147520182,2147298130,2147519963,2147087798,2146921124,2147720521,2147120932,1669,0,9,39127
1364213719,5806,997.6599731445312000,234.5650024414062500,542.0792846679688000,6.2178130149841310,36.6797103881835940,88,1069,97,76,80,11333,2146959698,2147519963,2147295643,2147520996,2147087204,2146915437,2147720265,2147120795,214,-1,9,31785
1364217319,5806,998.7399902343750000,236.5836944580078000,543.0178833007812000,6.1884078979492190,36.5912590026855500,87,1071,95,76,80,11333,2146960484,2147517888,2147300141,2147521106,2147087872,2146919003,2147722834,2147117302,2980,-1,8,45913
1364220919,5806,1002.7999877929688000,236.0579071044922000,541.4025268554688000,6.2390141487121580,36.5896606445312500,89,1070,99,77,79,11335,2146959908,2147516809,2147298770,2147519497,2147087661,2146925165,2147722541,2147120987,3589,-1,9,20906
1364222155,5806,999.4799804687500000,234.9799041748047000,541.9487915039062000,6.2219028472900390,36.6558494567871100,87,1073,94,78,80,11369,2146961901,2147520804,2147299200,2147520000,2147087186,2146918464,2147723721,2147122651,812,-1,9,30364
